{"data":{"norad_id":66427,"epoch":"2026-09-20T10:09:18.868320Z","epoch_age_seconds":99780,"freshness":"FRESH","line1":"1 66427U 25259F   26263.42313505  .00008255  00000+0  30911-3 0  9996","line2":"2 66427  43.0005 254.5642 0001250 268.8526  91.2182 15.27584038 49270","mean_motion":15.27584038,"eccentricity":0.000125,"inclination_deg":43.0005,"raan_deg":254.5642,"arg_perigee_deg":268.8526,"mean_anomaly_deg":91.2182,"bstar":0.00030911,"rev_number":4927,"period_min":94.266499529894,"perigee_km":482.17935809102,"apogee_km":483.89465159223,"semimajor_km":6861.1740048416,"source":"CELESTRAK","updated_at":"2026-09-21T09:00:35.906840Z"}}